CW3276 Weather Reports


Display with metric or nautical units.
time (UTC)temp
F
wind
direction
speed
MPH
gust
MPH
rain 1hr
in
rain 24hr
in
rain mn
in
humidity
%
barometer
mb
20260507112227 61 0 5.0 14.0 0.00 0.11 0.00 53 1013.0
20260507111159 60 180 5.0 10.0 0.00 0.11 0.00 54 1013.2
20260507110156 60 0 5.0 12.0 0.00 0.11 0.00 54 1013.2
20260507105134 60 45 4.0 11.0 0.00 0.11 0.00 57 1012.8
20260507104121 60 45 4.0 12.0 0.00 0.11 0.00 56 1012.8
20260507103100 60 45 4.0 11.0 0.00 0.11 0.00 55 1012.8
20260507102046 60 180 3.0 9.0 0.00 0.11 0.00 56 1012.8
20260507101022 59 0 5.0 11.0 0.00 0.11 0.00 58 1012.8
20260507100006 58 45 5.0 14.0 0.00 0.11 0.00 61 1012.8
20260507094959 57 180 5.0 11.0 0.00 0.11 0.00 60 1012.7
20260507093946 57 0 4.0 15.0 0.00 0.11 0.00 61 1012.5
20260507092926 57 45 5.0 15.0 0.00 0.11 0.00 63 1012.5
20260507090921 56 45 3.0 14.0 0.00 0.11 0.00 64 1012.6
20260507085853 56 45 4.0 13.0 0.00 0.11 0.00 66 1012.6
20260507084833 55 45 4.0 14.0 0.00 0.11 0.00 67 1012.5
20260507082730 54 45 5.0 11.0 0.00 0.11 0.00 71 1012.5
20260507081658 54 0 4.0 12.0 0.00 0.11 0.00 70 1012.4
20260507080635 53 45 4.0 14.0 0.00 0.11 0.00 75 1012.3
20260507075552 53 45 4.0 14.0 0.00 0.11 0.00 78 1012.3
20260507074525 52 0 5.0 12.0 0.00 0.11 0.00 78 1012.2
20260507073447 52 45 4.0 12.0 0.00 0.11 0.00 80 1012.3
20260507072421 52 0 3.0 11.0 0.00 0.11 0.00 82 1012.2
20260507071401 49 45 4.0 11.0 0.00 0.11 0.00 87 1011.9
20260507070352 49 45 5.0 11.0 0.00 0.11 0.00 88 1011.9
20260507065319 49 45 4.0 10.0 0.00 0.11 0.00 92 1011.7
20260507064229 47 23 2.0 6.0 0.00 0.11 0.00 94 1011.7
20260507063217 47 0 3.0 9.0 0.00 0.11 0.00 94 1011.7
20260507062205 46 45 2.0 10.0 0.00 0.11 0.00 94 1011.6
20260507060121 46 0 2.0 9.0 0.00 0.11 0.00 95 1011.4
20260507055115 46 0 2.0 5.0 0.00 0.11 0.00 95 1011.4
20260507053049 45 45 2.0 5.0 0.00 0.11 0.00 95 1011.3
20260507052029 45 68 1.0 5.0 0.00 0.11 0.00 95 1011.1
20260507050949 45 45 1.0 6.0 0.00 0.11 0.00 95 1010.9
20260507043821 45 23 1.0 6.0 0.00 0.11 0.00 95 1010.5
20260507042757 45 45 2.0 6.0 0.00 0.11 0.00 95 1010.5
20260507041745 45 45 2.0 10.0 0.00 0.11 0.00 95 1010.4
20260507040725 45 45 3.0 10.0 0.00 0.11 0.00 95 1010.4
20260507035712 45 0 2.0 7.0 0.00 0.11 0.00 95 1010.4
20260507033625 45 45 2.0 7.0 0.00 0.11 0.00 95 1010.1
20260507032615 45 45 2.0 5.0 0.00 0.11 0.00 95 1010.1
20260507031604 45 45 2.0 6.0 0.00 0.11 0.00 95 1010.0
20260507030555 45 45 1.0 5.0 0.00 0.11 0.00 95 1009.9
20260507024458 45 45 1.0 5.0 0.00 0.11 0.00 95 1009.8
20260507023438 45 45 1.0 5.0 0.00 0.11 0.00 95 1009.6
20260507022414 45 45 2.0 5.0 0.00 0.11 0.00 95 1009.6
20260507021404 45 23 1.0 4.0 0.00 0.11 0.00 95 1009.4
20260507020334 45 45 2.0 5.0 0.00 0.11 0.00 95 1009.4
20260507015311 45 45 2.0 6.0 0.00 0.11 0.00 95 1009.3
20260507014252 45 0 1.0 5.0 0.00 0.11 0.00 95 1009.3
20260507012230 45 45 2.0 6.0 0.00 0.11 0.00 95 1009.1
20260507011219 46 45 2.0 6.0 0.00 0.11 0.00 95 1008.8
20260507005158 46 113 2.0 7.0 0.00 0.11 0.00 95 1008.8
20260507004157 46 68 1.0 4.0 0.00 0.11 0.00 95 1008.9
20260507003136 46 45 2.0 6.0 0.00 0.11 0.00 95 1008.9
20260507002105 46 45 2.0 7.0 0.00 0.11 0.00 95 1008.8
20260507001033 46 23 2.0 6.0 0.00 0.11 0.00 95 1008.8
20260507000019 46 45 2.0 5.0 0.00 0.11 0.00 95 1008.8
20260506234949 46 45 1.0 5.0 0.00 0.11 0.00 95 1008.8
20260506233918 46 45 2.0 4.0 0.00 0.11 0.00 95 1008.7
20260506232853 46 45 2.0 5.0 0.00 0.11 0.00 95 1008.7
20260506231853 47 45 2.0 5.0 0.00 0.11 0.00 95 1008.9
20260506230821 47 45 2.0 5.0 0.00 0.11 0.00 95 1008.7
20260506225752 47 45 2.0 6.0 0.00 0.11 0.00 95 1008.7
20260506223714 47 45 1.0 4.0 0.00 0.11 0.00 96 1008.5
20260506222656 47 45 2.0 9.0 0.00 0.11 0.00 96 1008.5
20260506221628 47 23 2.0 9.0 0.00 0.11 0.00 96 1008.2
20260506220616 47 0 2.0 10.0 0.00 0.11 0.00 96 1008.2
20260506215545 48 0 4.0 10.0 0.00 0.11 0.11 96 1008.2
20260506213515 48 0 2.0 7.0 0.00 0.11 0.11 96 1008.1
20260506211434 48 45 1.0 6.0 0.00 0.11 0.11 96 1008.0
20260506210359 48 45 2.0 7.0 0.00 0.11 0.11 95 1007.8
20260506205328 48 45 1.0 4.0 0.00 0.11 0.11 95 1007.7
20260506204308 48 45 2.0 6.0 0.00 0.11 0.11 95 1007.7
20260506203257 48 23 1.0 5.0 0.00 0.11 0.11 95 1007.7
20260506202246 48 23 1.0 3.0 0.00 0.11 0.11 95 1007.6
20260506201234 48 23 1.0 4.0 0.00 0.11 0.11 95 1007.6
20260506200204 48 23 1.0 3.0 0.00 0.11 0.11 95 1007.6
20260506195148 48 23 1.0 4.0 0.00 0.11 0.11 95 1007.5
20260506194138 49 0 1.0 4.0 0.00 0.11 0.11 95 1007.3
20260506193120 49 23 1.0 4.0 0.00 0.11 0.11 94 1007.3
20260506192051 49 23 2.0 9.0 0.00 0.11 0.11 94 1007.2
20260506191017 49 45 1.0 7.0 0.00 0.11 0.11 94 1007.1
20260506185938 49 45 2.0 5.0 0.01 0.11 0.11 94 1007.1
20260506184929 49 0 1.0 5.0 0.01 0.11 0.11 94 1007.1
20260506183913 49 23 2.0 5.0 0.02 0.11 0.11 94 1006.9
20260506181834 49 45 2.0 6.0 0.03 0.10 0.10 93 1006.6
20260506180825 50 23 2.0 5.0 0.04 0.10 0.10 93 1006.6
20260506174741 50 23 2.0 5.0 0.06 0.09 0.09 92 1006.6
20260506173731 50 45 1.0 4.0 0.06 0.09 0.09 91 1006.4
20260506172715 51 45 1.0 5.0 0.05 0.07 0.07 91 1006.4
20260506171649 51 23 2.0 6.0 0.04 0.06 0.06 90 1006.2
20260506170626 51 45 2.0 6.0 0.04 0.06 0.06 89 1006.1
20260506165554 51 23 1.0 5.0 0.03 0.05 0.05 87 1006.1
20260506164545 51 23 1.0 4.0 0.03 0.04 0.04 86 1006.1
20260506163530 52 23 1.0 5.0 0.03 0.03 0.03 85 1006.1
20260506162511 52 45 1.0 6.0 0.02 0.02 0.02 83 1006.1
20260506161436 52 23 1.0 6.0 0.02 0.02 0.02 82 1006.1
20260506160407 53 23 2.0 9.0 0.02 0.02 0.02 81 1006.1
20260506154340 54 23 3.0 6.0 0.00 0.00 0.00 75 1006.0
20260506153324 54 45 4.0 9.0 0.00 0.00 0.00 73 1006.0
20260506152309 54 45 3.0 10.0 0.00 0.00 0.00 72 1006.0
20260506151249 55 45 4.0 11.0 0.00 0.00 0.00 71 1006.0
20260506150219 55 23 4.0 10.0 0.00 0.00 0.00 72 1006.0
20260506145150 55 23 3.0 12.0 0.00 0.00 0.00 69 1006.0
20260506144136 55 0 4.0 10.0 0.00 0.00 0.00 67 1006.1
20260506143116 55 23 3.0 9.0 0.00 0.00 0.00 66 1006.1
20260506142101 55 45 4.0 7.0 0.00 0.00 0.00 65 1006.1
20260506141044 55 23 3.0 10.0 0.00 0.00 0.00 65 1006.0
20260506140043 55 45 5.0 12.0 0.00 0.00 0.00 66 1006.0
20260506135007 55 23 5.0 14.0 0.00 0.00 0.00 66 1006.0
20260506133941 56 45 5.0 12.0 0.00 0.00 0.00 67 1006.0
20260506132933 56 45 3.0 11.0 0.00 0.00 0.00 66 1006.0
20260506131929 56 23 4.0 10.0 0.00 0.00 0.00 66 1005.9
20260506130923 56 23 3.0 7.0 0.00 0.00 0.00 65 1005.9
20260506125855 56 0 5.0 12.0 0.00 0.00 0.00 63 1005.9
20260506122753 57 0 4.0 9.0 0.00 0.00 0.00 62 1005.7
20260506121732 57 45 6.0 15.0 0.00 0.00 0.00 61 1005.5
20260506120740 57 45 5.0 17.0 0.00 0.00 0.00 61 1005.5
20260506115636 58 45 5.0 17.0 0.00 0.00 0.00 64 1005.5
20260506114608 57 45 4.0 11.0 0.00 0.00 0.00 65 1005.5
20260506113551 57 45 4.0 11.0 0.00 0.00 0.00 63 1005.5